Terug naar catalogus

GALAXY 25

TELSTAR 5

ActiefCommunicatieGEO
NORAD 24812·PAYLOAD·🇺🇸 United States

Gelanceerd May 24, 1997 vanaf Baikonur Cosmodrome

Loading…

TLE

VersSource: Space-Track

Epoch: Sep 14, 2026, 15:29 UTC

1 24812U 97026A   26257.64570366  .00000021  00000-0  00000-0 0  9993
2 24812   7.6125  66.7620 0005901  65.6687 350.1460  0.99088289107112

Volg GALAXY 25 in realtime met AllMySat

Download on the App Store